Time,TemperatureF,DewpointF,PressureIn,WindDirection,WindDirectionDegrees,WindSpeedMPH,WindSpeedGustMPH,Humidity,HourlyPrecipIn,Conditions,Clouds,dailyrainin,SoftwareType,DateUTC
2013-02-24 00:01:00,31.0,25.0,-100.00,SSW,196,4.0,15.0,75,0.00,,,-99.99,,2013-02-24 05:01:00,
2013-02-24 00:11:00,31.0,25.0,-100.00,South,190,4.0,15.0,75,0.00,,,-99.99,,2013-02-24 05:11:00,
2013-02-24 00:22:00,33.0,27.0,-100.00,South,189,4.0,15.0,75,0.00,,,-99.99,,2013-02-24 05:22:00,
2013-02-24 00:32:00,31.0,25.0,-100.00,SSW,210,5.0,15.0,76,0.00,,,-99.99,,2013-02-24 05:32:00,
2013-02-24 00:42:00,31.0,25.0,-100.00,South,175,4.0,15.0,75,0.00,,,-99.99,,2013-02-24 05:42:00,
2013-02-24 00:52:00,33.0,27.0,-100.00,SSW,196,4.0,15.0,75,0.00,,,-99.99,,2013-02-24 05:52:00,
2013-02-24 01:02:00,29.0,23.0,-100.00,WSW,240,5.0,15.0,73,0.00,,,-99.99,,2013-02-24 06:02:00,
2013-02-24 01:11:00,30.0,23.0,-100.00,South,186,5.0,15.0,73,0.00,,,-99.99,,2013-02-24 06:11:00,
2013-02-24 01:21:00,30.0,25.0,-100.00,SSW,210,6.0,6.0,75,0.00,,,-99.99,,2013-02-24 06:21:00,
2013-02-24 01:32:00,30.0,25.0,-100.00,SSW,210,6.0,6.0,75,0.00,,,-99.99,,2013-02-24 06:32:00,
2013-02-24 01:42:00,30.0,25.0,-100.00,SSW,197,6.0,6.0,75,0.00,,,-99.99,,2013-02-24 06:42:00,
2013-02-24 01:52:00,30.0,23.0,-100.00,SSW,204,3.0,6.0,75,0.00,,,-99.99,,2013-02-24 06:52:00,
2013-02-24 02:01:00,30.0,23.0,-100.00,SSW,200,6.0,8.0,75,0.00,,,-99.99,,2013-02-24 07:01:00,
2013-02-24 02:12:00,28.0,23.0,-100.00,SSW,203,5.0,8.0,75,0.00,,,-99.99,,2013-02-24 07:12:00,
2013-02-24 02:22:00,30.0,25.0,-100.00,SW,232,4.0,8.0,75,0.00,,,-99.99,,2013-02-24 07:22:00,
2013-02-24 02:32:00,30.0,25.0,-100.00,SSW,197,5.0,8.0,75,0.00,,,-99.99,,2013-02-24 07:32:00,
2013-02-24 02:42:00,31.0,25.0,-100.00,SW,224,6.0,8.0,75,0.00,,,-99.99,,2013-02-24 07:42:00,
2013-02-24 02:51:00,31.0,25.0,-100.00,South,182,3.0,8.0,75,0.00,,,-99.99,,2013-02-24 07:51:00,
2013-02-24 03:01:00,31.0,25.0,-100.00,WSW,244,6.0,8.0,75,0.00,,,-99.99,,2013-02-24 08:01:00,
2013-02-24 03:11:00,28.0,21.0,-100.00,SW,220,6.0,8.0,73,0.00,,,-99.99,,2013-02-24 08:11:00,
2013-02-24 03:22:00,29.0,23.0,-100.00,SW,225,6.0,8.0,73,0.00,,,-99.99,,2013-02-24 08:22:00,
2013-02-24 03:32:00,30.0,23.0,-100.00,SSW,192,6.0,8.0,72,0.00,,,-99.99,,2013-02-24 08:32:00,
2013-02-24 03:42:00,29.0,21.0,-100.00,South,183,6.0,8.0,72,0.00,,,-99.99,,2013-02-24 08:42:00,
2013-02-24 03:53:00,29.0,23.0,-100.00,SSW,208,8.0,12.0,72,0.00,,,-99.99,,2013-02-24 08:53:00,
2013-02-24 04:01:00,29.0,21.0,-100.00,SSW,197,7.0,12.0,71,0.00,,,-99.99,,2013-02-24 09:01:00,
2013-02-24 04:11:00,28.0,21.0,-100.00,South,186,6.0,12.0,72,0.00,,,-99.99,,2013-02-24 09:11:00,
2013-02-24 04:22:00,29.0,23.0,-100.00,SSW,199,6.0,12.0,72,0.00,,,-99.99,,2013-02-24 09:22:00,
2013-02-24 04:32:00,29.0,21.0,-100.00,SSW,206,7.0,12.0,72,0.00,,,-99.99,,2013-02-24 09:32:00,
2013-02-24 04:42:00,28.0,21.0,-100.00,SSW,196,6.0,12.0,72,0.00,,,-99.99,,2013-02-24 09:42:00,
2013-02-24 04:51:00,29.0,21.0,-100.00,South,190,4.0,12.0,73,0.00,,,-99.99,,2013-02-24 09:51:00,
2013-02-24 05:01:00,28.0,21.0,-100.00,South,187,4.0,12.0,73,0.00,,,-99.99,,2013-02-24 10:01:00,
2013-02-24 05:11:00,31.0,23.0,-100.00,SSW,196,7.0,12.0,72,0.00,,,-99.99,,2013-02-24 10:11:00,
2013-02-24 05:22:00,29.0,21.0,-100.00,South,190,5.0,12.0,72,0.00,,,-99.99,,2013-02-24 10:22:00,
2013-02-24 05:32:00,28.0,21.0,-100.00,South,190,6.0,12.0,72,0.00,,,-99.99,,2013-02-24 10:32:00,
2013-02-24 05:42:00,28.0,21.0,-100.00,SSW,200,6.0,12.0,71,0.00,,,-99.99,,2013-02-24 10:42:00,
2013-02-24 05:52:00,28.0,21.0,-100.00,SW,218,6.0,12.0,72,0.00,,,-99.99,,2013-02-24 10:52:00,
2013-02-24 06:01:00,27.0,21.0,-100.00,South,186,4.0,12.0,72,0.00,,,-99.99,,2013-02-24 11:01:00,
2013-02-24 06:11:00,28.0,21.0,-100.00,SSW,193,6.0,12.0,72,0.00,,,-99.99,,2013-02-24 11:11:00,
2013-02-24 06:22:00,28.0,21.0,-100.00,SSW,193,4.0,12.0,72,0.00,,,-99.99,,2013-02-24 11:22:00,
2013-02-24 06:32:00,28.0,21.0,-100.00,SSW,201,5.0,12.0,72,0.00,,,-99.99,,2013-02-24 11:32:00,
2013-02-24 06:42:00,28.0,21.0,-100.00,SW,220,6.0,12.0,73,0.00,,,-99.99,,2013-02-24 11:42:00,
2013-02-24 06:52:00,28.0,21.0,-100.00,South,190,6.0,12.0,73,0.00,,,-99.99,,2013-02-24 11:52:00,
2013-02-24 07:02:00,28.0,21.0,-100.00,South,186,5.0,12.0,75,0.00,,,-99.99,,2013-02-24 12:02:00,
2013-02-24 07:11:00,28.0,21.0,-100.00,SSW,207,6.0,12.0,75,0.00,,,-99.99,,2013-02-24 12:11:00,
2013-02-24 07:22:00,28.0,21.0,-100.00,SSW,204,6.0,12.0,75,0.00,,,-99.99,,2013-02-24 12:22:00,
2013-02-24 07:32:00,28.0,23.0,-100.00,SSW,197,6.0,12.0,76,0.00,,,-99.99,,2013-02-24 12:32:00,
2013-02-24 07:46:00,28.0,21.0,-100.00,SSW,192,9.0,14.0,75,0.00,,,-99.99,,2013-02-24 12:46:00,
2013-02-24 07:55:00,29.0,23.0,-100.00,SSW,204,6.0,14.0,76,0.00,,,-99.99,,2013-02-24 12:55:00,
2013-02-24 08:27:00,29.0,25.0,-100.00,SSW,207,9.0,14.0,78,0.00,,,-99.99,,2013-02-24 13:27:00,
2013-02-24 08:34:00,29.0,25.0,-100.00,South,186,9.0,14.0,80,0.00,,,-99.99,,2013-02-24 13:34:00,
2013-02-24 08:45:00,29.0,25.0,-100.00,SSW,199,7.0,14.0,78,0.00,,,-99.99,,2013-02-24 13:45:00,
2013-02-24 08:53:00,29.0,25.0,-100.00,South,190,9.0,14.0,78,0.00,,,-99.99,,2013-02-24 13:53:00,
2013-02-24 09:05:00,30.0,25.0,-100.00,SW,224,7.0,14.0,80,1.14,,,-99.99,,2013-02-24 14:05:00,
2013-02-24 09:14:00,29.0,25.0,-100.00,South,189,8.0,14.0,81,1.14,,,-99.99,,2013-02-24 14:14:00,
2013-02-24 09:34:00,30.0,27.0,-100.00,SSW,206,9.0,14.0,81,0.00,,,-99.99,,2013-02-24 14:34:00,
2013-02-24 09:44:00,30.0,27.0,-100.00,SSW,193,9.0,14.0,81,0.00,,,-99.99,,2013-02-24 14:44:00,
2013-02-24 09:53:00,28.0,23.0,-100.00,SW,228,9.0,14.0,81,6.22,,,-99.99,,2013-02-24 14:53:00,
2013-02-24 10:03:00,28.0,25.0,-100.00,SSW,207,6.0,14.0,82,4.53,,,-99.99,,2013-02-24 15:03:00,
2013-02-24 10:14:00,27.0,23.0,-100.00,SSE,168,7.0,14.0,82,4.53,,,-99.99,,2013-02-24 15:14:00,
2013-02-24 10:23:00,28.0,23.0,-100.00,SSW,210,7.0,14.0,82,2.83,,,-99.99,,2013-02-24 15:23:00,
2013-02-24 10:32:00,28.0,25.0,-100.00,SSW,203,7.0,14.0,82,6.22,,,-99.99,,2013-02-24 15:32:00,
2013-02-24 10:42:00,28.0,25.0,-100.00,SW,214,9.0,14.0,84,1.14,,,-99.99,,2013-02-24 15:42:00,
2013-02-24 10:52:00,28.0,25.0,-100.00,South,186,9.0,14.0,84,0.00,,,-99.99,,2013-02-24 15:52:00,
2013-02-24 11:01:00,30.0,27.0,-100.00,South,183,7.0,14.0,84,0.00,,,-99.99,,2013-02-24 16:01:00,
2013-02-24 11:12:00,30.0,27.0,-100.00,SSW,203,6.0,14.0,84,0.00,,,-99.99,,2013-02-24 16:12:00,
2013-02-24 11:21:00,30.0,27.0,-100.00,SSW,193,6.0,14.0,84,0.00,,,-99.99,,2013-02-24 16:21:00,
2013-02-24 11:32:00,31.0,27.0,-100.00,SSW,211,6.0,14.0,82,0.00,,,-99.99,,2013-02-24 16:32:00,
2013-02-24 11:42:00,30.0,27.0,-100.00,South,182,9.0,14.0,82,0.00,,,-99.99,,2013-02-24 16:42:00,
2013-02-24 11:52:00,31.0,27.0,-100.00,SSW,200,8.0,14.0,81,0.00,,,-99.99,,2013-02-24 16:52:00,
2013-02-24 12:01:00,31.0,25.0,-100.00,SSW,193,9.0,14.0,77,0.00,,,-99.99,,2013-02-24 17:01:00,
2013-02-24 12:11:00,31.0,25.0,-100.00,SW,214,11.0,14.0,77,0.00,,,-99.99,,2013-02-24 17:11:00,
2013-02-24 12:21:00,29.0,23.0,-100.00,SW,228,11.0,14.0,75,0.00,,,-99.99,,2013-02-24 17:21:00,
2013-02-24 12:32:00,31.0,25.0,-100.00,South,182,9.0,14.0,76,0.00,,,-99.99,,2013-02-24 17:32:00,
2013-02-24 12:42:00,29.0,23.0,-100.00,South,187,11.0,14.0,76,0.00,,,-99.99,,2013-02-24 17:42:00,
2013-02-24 12:52:00,29.0,23.0,-100.00,SSW,208,11.0,14.0,76,0.00,,,-99.99,,2013-02-24 17:52:00,
2013-02-24 13:02:00,29.0,23.0,-100.00,SSE,159,9.0,14.0,75,0.00,,,-99.99,,2013-02-24 18:02:00,
2013-02-24 13:11:00,29.0,23.0,-100.00,SSW,197,9.0,14.0,75,0.00,,,-99.99,,2013-02-24 18:11:00,
2013-02-24 13:22:00,30.0,23.0,-100.00,SSW,193,10.0,14.0,73,0.00,,,-99.99,,2013-02-24 18:22:00,
2013-02-24 13:32:00,29.0,23.0,-100.00,South,189,11.0,14.0,73,0.00,,,-99.99,,2013-02-24 18:32:00,
2013-02-24 13:42:00,29.0,23.0,-100.00,South,182,12.0,14.0,72,0.00,,,-99.99,,2013-02-24 18:42:00,
2013-02-24 13:52:00,30.0,23.0,-100.00,SSW,197,9.0,14.0,73,0.00,,,-99.99,,2013-02-24 18:52:00,
2013-02-24 14:01:00,30.0,23.0,-100.00,SSW,208,9.0,14.0,72,0.00,,,-99.99,,2013-02-24 19:01:00,
2013-02-24 14:12:00,30.0,23.0,-100.00,SSW,197,7.0,14.0,73,0.00,,,-99.99,,2013-02-24 19:12:00,
2013-02-24 14:22:00,30.0,23.0,-100.00,SSW,197,9.0,14.0,72,0.00,,,-99.99,,2013-02-24 19:22:00,
2013-02-24 14:32:00,31.0,23.0,-100.00,SSE,153,6.0,14.0,71,0.00,,,-99.99,,2013-02-24 19:32:00,
2013-02-24 14:42:00,31.0,23.0,-100.00,SSW,204,7.0,14.0,69,0.00,,,-99.99,,2013-02-24 19:42:00,
2013-02-24 14:52:00,31.0,23.0,-100.00,South,186,10.0,14.0,71,0.00,,,-99.99,,2013-02-24 19:52:00,
2013-02-24 15:02:00,31.0,23.0,-100.00,South,189,11.0,17.0,69,0.00,,,-99.99,,2013-02-24 20:02:00,
2013-02-24 15:11:00,31.0,23.0,-100.00,South,183,8.0,17.0,71,0.00,,,-99.99,,2013-02-24 20:11:00,
2013-02-24 15:21:00,32.0,25.0,-100.00,SSW,199,6.0,17.0,72,0.00,,,-99.99,,2013-02-24 20:21:00,
2013-02-24 15:32:00,31.0,25.0,-100.00,SSW,199,6.0,17.0,72,0.00,,,-99.99,,2013-02-24 20:32:00,
2013-02-24 15:42:00,31.0,23.0,-100.00,SSW,194,8.0,17.0,72,0.00,,,-99.99,,2013-02-24 20:42:00,
2013-02-24 15:52:00,31.0,25.0,-100.00,South,186,9.0,17.0,72,0.00,,,-99.99,,2013-02-24 20:52:00,
2013-02-24 16:02:00,31.0,23.0,-100.00,South,187,11.0,17.0,72,0.00,,,-99.99,,2013-02-24 21:02:00,
2013-02-24 16:11:00,31.0,25.0,-100.00,SSW,197,9.0,17.0,72,0.00,,,-99.99,,2013-02-24 21:11:00,
2013-02-24 16:21:00,32.0,25.0,-100.00,SSW,199,9.0,17.0,73,0.00,,,-99.99,,2013-02-24 21:21:00,
2013-02-24 16:32:00,31.0,25.0,-100.00,SSW,196,8.0,17.0,73,0.00,,,-99.99,,2013-02-24 21:32:00,
2013-02-24 16:42:00,31.0,25.0,-100.00,SSW,194,7.0,17.0,73,0.00,,,-99.99,,2013-02-24 21:42:00,
2013-02-24 16:52:00,32.0,25.0,-100.00,WSW,245,7.0,17.0,73,0.00,,,-99.99,,2013-02-24 21:52:00,
2013-02-24 17:01:00,31.0,25.0,-100.00,SSW,200,8.0,17.0,73,0.00,,,-99.99,,2013-02-24 22:01:00,
2013-02-24 17:11:00,32.0,25.0,-100.00,South,176,6.0,17.0,73,0.00,,,-99.99,,2013-02-24 22:11:00,
2013-02-24 17:21:00,31.0,25.0,-100.00,SW,218,5.0,17.0,73,0.00,,,-99.99,,2013-02-24 22:21:00,
2013-02-24 17:32:00,31.0,25.0,-100.00,SW,220,5.0,17.0,73,0.00,,,-99.99,,2013-02-24 22:32:00,
2013-02-24 17:42:00,32.0,25.0,-100.00,South,190,6.0,17.0,73,0.00,,,-99.99,,2013-02-24 22:42:00,
2013-02-24 17:52:00,32.0,25.0,-100.00,SW,220,6.0,17.0,73,0.00,,,-99.99,,2013-02-24 22:52:00,
2013-02-24 18:02:00,32.0,25.0,-100.00,South,186,6.0,17.0,73,0.00,,,-99.99,,2013-02-24 23:02:00,
2013-02-24 18:11:00,31.0,25.0,-100.00,South,182,6.0,17.0,75,0.00,,,-99.99,,2013-02-24 23:11:00,
2013-02-24 18:21:00,31.0,25.0,-100.00,SW,227,6.0,17.0,73,0.00,,,-99.99,,2013-02-24 23:21:00,
2013-02-24 18:32:00,33.0,27.0,-100.00,South,187,7.0,17.0,73,0.00,,,-99.99,,2013-02-24 23:32:00,
2013-02-24 18:42:00,32.0,27.0,-100.00,SSW,193,6.0,17.0,75,0.00,,,-99.99,,2013-02-24 23:42:00,
2013-02-24 18:52:00,33.0,27.0,-100.00,SSW,194,6.0,17.0,75,0.00,,,-99.99,,2013-02-24 23:52:00,
2013-02-24 19:01:00,33.0,27.0,-100.00,SSE,168,5.0,17.0,75,0.00,,,-99.99,,2013-02-25 00:01:00,
2013-02-24 19:11:00,31.0,25.0,-100.00,SSW,196,4.0,17.0,75,0.00,,,-99.99,,2013-02-25 00:11:00,
2013-02-24 19:21:00,31.0,25.0,-100.00,SSW,203,2.0,17.0,75,0.00,,,-99.99,,2013-02-25 00:21:00,
2013-02-24 19:32:00,32.0,27.0,-100.00,SSW,201,3.0,17.0,75,0.00,,,-99.99,,2013-02-25 00:32:00,
2013-02-24 19:42:00,31.0,25.0,-100.00,SSW,213,4.0,17.0,75,0.00,,,-99.99,,2013-02-25 00:42:00,
2013-02-24 19:52:00,31.0,25.0,-100.00,South,190,2.0,17.0,75,0.00,,,-99.99,,2013-02-25 00:52:00,
2013-02-24 20:01:00,31.0,25.0,-100.00,SSW,192,2.0,17.0,75,0.00,,,-99.99,,2013-02-25 01:01:00,
2013-02-24 20:11:00,31.0,25.0,-100.00,South,183,3.0,17.0,76,0.00,,,-99.99,,2013-02-25 01:11:00,
2013-02-24 20:21:00,31.0,25.0,-100.00,SSW,192,4.0,17.0,76,0.00,,,-99.99,,2013-02-25 01:21:00,
2013-02-24 20:32:00,31.0,25.0,-100.00,SSW,193,4.0,17.0,77,0.00,,,-99.99,,2013-02-25 01:32:00,
2013-02-24 20:42:00,30.0,25.0,-100.00,SSW,192,3.0,17.0,77,0.00,,,-99.99,,2013-02-25 01:42:00,
2013-02-24 20:52:00,30.0,25.0,-100.00,South,176,2.0,17.0,77,0.00,,,-99.99,,2013-02-25 01:52:00,
2013-02-24 21:01:00,30.0,25.0,-100.00,South,180,2.0,17.0,77,0.00,,,-99.99,,2013-02-25 02:01:00,
2013-02-24 21:11:00,30.0,25.0,-100.00,South,182,2.0,17.0,78,0.00,,,-99.99,,2013-02-25 02:11:00,
2013-02-24 21:21:00,30.0,25.0,-100.00,South,177,1.0,17.0,78,0.00,,,-99.99,,2013-02-25 02:21:00,
2013-02-24 21:32:00,29.0,23.0,-100.00,South,190,1.0,17.0,78,0.00,,,-99.99,,2013-02-25 02:32:00,
2013-02-24 21:42:00,29.0,25.0,-100.00,South,172,1.0,17.0,80,0.00,,,-99.99,,2013-02-25 02:42:00,
2013-02-24 21:52:00,29.0,25.0,-100.00,SSE,165,1.0,17.0,80,0.00,,,-99.99,,2013-02-25 02:52:00,
2013-02-24 22:02:00,28.0,25.0,-100.00,SSE,158,1.0,17.0,81,0.00,,,-99.99,,2013-02-25 03:02:00,
2013-02-24 22:11:00,28.0,23.0,-100.00,ESE,121,0.0,17.0,81,0.00,,,-99.99,,2013-02-25 03:11:00,
2013-02-24 22:21:00,28.0,25.0,-100.00,SE,146,0.0,17.0,82,0.00,,,-99.99,,2013-02-25 03:21:00,
2013-02-24 22:32:00,28.0,25.0,-100.00,SE,128,0.0,17.0,82,0.00,,,-99.99,,2013-02-25 03:32:00,
2013-02-24 22:42:00,30.0,27.0,-100.00,SE,128,0.0,17.0,84,0.00,,,-99.99,,2013-02-25 03:42:00,
2013-02-24 22:52:00,30.0,27.0,-100.00,SW,223,0.0,17.0,84,0.00,,,-99.99,,2013-02-25 03:52:00,
2013-02-24 23:02:00,27.0,23.0,-100.00,East,81,0.0,17.0,82,0.00,,,-99.99,,2013-02-25 04:02:00,
2013-02-24 23:11:00,27.0,23.0,-100.00,SE,145,0.0,17.0,84,0.00,,,-99.99,,2013-02-25 04:11:00,
2013-02-24 23:21:00,27.0,25.0,-100.00,SE,144,0.0,17.0,84,0.00,,,-99.99,,2013-02-25 04:21:00,
2013-02-24 23:32:00,27.0,25.0,-100.00,SE,144,0.0,17.0,84,0.00,,,-99.99,,2013-02-25 04:32:00,
2013-02-24 23:42:00,28.0,25.0,-100.00,SE,144,0.0,17.0,84,0.00,,,-99.99,,2013-02-25 04:42:00,
2013-02-24 23:52:00,27.0,23.0,-100.00,ESE,105,0.0,17.0,84,0.00,,,-99.99,,2013-02-25 04:52:00,